Location: Buchberg
(46.9333°N, 15.8500°E)
Time: 18:42:35
(UTC+00:00)

CZ-4B R/B - Pass Details

Date: 14 July 2020
Orbit: 390 x 465 km, 97.6° (Epoch: 05 August)

Event Time Altitude Azimuth Distance (km) Brightness Sun altitude
Rises 02:10:16 0° 131° (SE) 2,490 5.2 -9.5°
Reaches altitude 10° 02:12:41 10° 114° (ESE) 1,621 4.5 -9.2°
Maximum altitude 02:15:16 20° 66° (ENE) 1,143 4.5 -8.9°
Drops below altitude 10° 02:17:52 10° 18° (NNE) 1,628 5.4 -8.5°
Sets 02:20:17 0° 1° (N) 2,503 5.9 -8.3°
